{"data":{"norad_id":67333,"epoch":"2026-05-25T00:45:17.089056Z","epoch_age_seconds":79555,"freshness":"FRESH","line1":"1 67333U 26002AE  26145.03144779  .00009480  00000+0  35352-3 0  9996","line2":"2 67333  43.0023 254.1795 0002126 279.1476  80.9135 15.27586798 22813","mean_motion":15.27586798,"eccentricity":0.0002126,"inclination_deg":43.0023,"raan_deg":254.1795,"arg_perigee_deg":279.1476,"mean_anomaly_deg":80.9135,"bstar":0.00035352,"rev_number":2281,"period_min":94.266329211887,"perigee_km":481.57005662115,"apogee_km":484.48742429399,"semimajor_km":6861.1657404576,"source":"CELESTRAK","updated_at":"2026-05-25T13:38:21.521203Z"}}